Lapse_Rate
5.4 5.8 6.2 6.2 5.8 5.5 5.5 5.7 5.9 6.2 5.9 5.4 5.9 6.2 6.6 6.7 6.7 6.6 6.7 7.0 6.2 6.8 7.2 7.8 8.1 8.4 8.2 8.0 8.2 8.4 8.5 8.4 8.4 8.2 8.2 8.3 8.4 8.5 8.2 8.2 8.3 8.1 8.1 8.5
5.9 6.2 5.9 5.6 5.6 5.7 6.0 6.1 6.4 6.3 6.2 5.6 5.7 5.7 6.0 6.5 6.9 6.8 6.1 5.8 6.3 6.6 7.1 7.2 7.6 8.1 8.2 8.1 7.9 8.0 8.3 8.3 8.5 8.5 8.5 8.3 8.2 8.4 8.3 8.0 7.9 8.0 8.1 8.3
5.9 6.3 5.7 5.7 6.1 6.2 6.5 6.4 6.4 6.2 6.0 6.2 6.5 6.2 6.9 7.1 6.8 6.3 5.9 5.9 5.9 6.2 6.5 7.0 7.3 7.7 7.9 8.1 7.9 7.8 8.0 8.3 8.3 8.3 8.6 8.6 8.4 8.3 8.4 8.4 8.3 8.4 8.3 8.3
5.8 6.1 6.0 6.2 6.4 6.4 6.5 6.4 6.1 6.2 6.3 6.7 7.1 6.5 7.0 7.4 6.5 5.6 5.3 5.9 6.0 6.3 6.6 6.6 7.0 7.3 7.5 7.7 7.7 7.7 7.6 7.7 8.2 8.4 8.6 8.6 8.5 8.7 8.6 8.4 8.2 8.0 8.0 8.4
6.0 5.9 5.9 6.2 6.1 6.0 6.3 5.8 6.0 6.2 6.4 6.5 7.2 7.4 7.4 7.1 6.0 5.1 4.9 5.5 5.8 6.1 6.4 6.7 7.0 7.0 7.1 7.4 7.5 7.8 7.8 7.6 7.5 8.2 8.5 8.9 8.7 8.8 8.8 8.6 8.3 8.2 8.1 8.4
6.2 6.0 6.0 6.0 6.1 6.0 5.8 6.1 6.4 6.7 6.8 7.3 7.0 6.8 7.2 6.5 5.2 4.9 4.9 5.7 6.0 6.1 6.2 6.3 6.6 7.0 7.1 7.1 7.3 7.6 7.9 7.7 7.5 7.7 8.3 8.8 9.0 8.9 9.1 9.0 8.8 8.4 8.2 7.8
6.2 6.1 5.7 6.0 6.0 6.0 6.1 6.5 7.3 7.8 8.2 8.3 7.9 6.9 7.4 6.6 5.2 5.4 5.7 5.9 6.1 6.3 6.4 6.5 6.9 7.6 7.6 7.6 7.6 7.4 7.5 8.2 7.9 7.9 8.2 8.6 9.0 9.2 9.3 9.2 8.9 8.6 8.3 8.2
6.0 6.5 5.5 5.5 5.6 5.6 5.9 6.4 7.1 7.2 8.2 7.9 7.5 7.5 7.9 6.6 6.2 6.0 6.1 6.0 6.2 6.4 6.6 6.8 6.9 7.5 7.8 7.8 7.6 7.3 7.5 7.6 7.9 8.1 8.3 8.0 8.7 9.1 9.2 9.0 8.7 8.6 8.5 8.2
5.2 5.3 5.4 5.4 5.5 5.5 6.1 6.1 6.4 6.6 6.7 7.0 6.9 7.5 7.1 6.5 5.4 5.9 6.0 6.2 6.4 6.5 6.7 6.9 7.0 7.0 7.5 7.6 7.4 7.1 7.1 7.3 7.5 7.9 8.0 7.8 7.9 7.8 8.0 8.5 8.0 7.7 7.8 7.5
4.4 4.7 4.9 5.2 5.2 5.5 5.5 5.9 6.4 7.1 6.8 7.3 7.9 7.7 8.4 7.2 5.6 5.5 6.1 6.2 6.3 6.6 6.6 6.5 6.7 7.0 7.0 7.4 7.6 7.0 6.8 7.1 7.1 7.3 7.9 7.6 7.5 7.6 7.4 7.4 7.3 7.2 7.3 7.3
4.9 4.3 5.1 4.4 5.3 5.5 5.6 5.8 6.0 6.2 6.9 7.9 7.7 7.0 7.1 6.9 6.7 6.6 6.3 6.5 6.1 6.0 6.1 6.3 6.3 6.4 6.5 6.8 7.1 7.3 6.8 6.6 6.6 7.2 7.1 7.5 7.4 7.0 6.9 7.1 6.8 6.9 6.9 6.9
4.9 4.5 4.5 5.3 5.3 4.7 4.6 5.1 5.6 6.3 6.8 6.8 6.6 5.5 6.8 6.1 6.0 5.8 5.9 5.7 5.1 4.3 4.6 5.3 5.9 6.2 6.4 6.8 7.0 7.2 7.3 7.2 6.8 6.7 6.9 6.8 6.9 6.4 6.4 6.5 6.4 6.4 6.5 6.6
4.4 4.7 4.9 6.3 5.2 4.6 4.8 4.8 5.1 5.4 5.4 5.1 5.9 5.4 6.1 6.3 6.1 6.0 6.0 5.5 4.9 4.1 3.9 4.6 5.3 5.7 6.4 6.6 6.9 7.1 7.2 7.1 7.2 7.0 6.5 6.2 5.3 6.1 6.0 5.8 6.4 5.5 6.0 6.1
3.9 3.8 4.3 5.2 5.4 5.2 4.8 5.1 5.4 5.5 5.3 5.8 5.2 6.2 5.3 6.7 6.4 5.8 5.6 5.3 5.0 4.5 4.1 4.3 5.2 5.6 5.8 6.2 6.6 7.0 6.9 6.7 6.7 6.9 6.5 6.3 5.7 6.1 6.1 6.0 5.9 5.7 5.5 5.8
4.0 3.9 4.2 4.3 4.2 4.1 3.9 4.0 4.4 4.9 5.2 6.2 5.3 5.7 6.4 6.6 7.0 6.3 5.9 5.6 5.1 4.9 4.7 4.5 5.5 5.9 5.9 5.9 6.4 6.6 6.9 6.4 6.5 6.4 6.6 6.6 5.7 5.5 5.3 5.9 5.7 5.5 5.5 5.2
3.3 3.5 3.5 3.6 3.8 3.9 3.9 4.2 5.0 5.4 5.6 6.7 7.3 6.6 7.6 7.5 7.5 7.1 6.8 6.2 5.9 5.5 5.3 5.5 5.9 6.0 6.3 6.3 6.3 6.4 6.6 6.7 6.3 6.1 6.5 6.4 5.9 5.5 4.9 5.3 5.6 5.3 5.1 4.7
3.4 3.2 3.2 3.3 3.7 4.0 4.5 5.9 5.6 5.5 6.1 7.7 7.9 8.0 8.0 7.8 7.9 7.7 7.2 7.1 6.5 6.2 6.0 5.9 6.2 6.1 6.4 6.5 6.5 6.5 6.4 6.6 6.7 6.2 6.5 5.9 5.9 5.6 5.2 5.1 5.0 4.8 4.8 4.9
4.2 3.2 3.3 3.5 4.6 5.1 6.0 6.1 5.7 5.7 6.0 7.4 7.8 8.1 8.1 8.1 7.9 7.8 7.6 7.0 6.6 6.2 5.9 6.0 6.1 6.2 6.2 6.5 6.3 6.4 6.4 6.1 6.0 5.9 6.3 6.2 6.3 5.9 5.7 5.2 5.2 5.1 5.1 5.0
4.2 3.8 4.1 4.1 4.6 4.9 5.2 6.3 6.4 6.3 6.4 7.1 6.9 7.5 7.7 8.0 8.0 7.9 7.4 6.9 6.5 6.2 5.8 5.8 6.0 6.0 6.2 6.4 6.4 6.3 6.4 6.2 6.2 6.0 6.0 5.9 6.1 6.3 6.0 5.6 5.4 5.3 5.3 5.1
4.1 4.0 3.9 4.2 4.4 4.7 6.3 6.5 6.4 6.3 6.1 7.3 7.3 7.4 7.3 7.3 7.8 8.2 7.2 7.3 7.0 6.5 6.1 6.2 6.2 6.0 6.1 6.2 6.4 6.3 6.4 6.3 6.1 5.8 5.7 5.5 5.8 6.0 5.5 5.2 5.2 5.1 5.0 5.5
4.7 4.2 4.0 4.2 4.4 4.7 5.6 5.6 6.0 6.1 7.2 7.1 7.1 6.9 7.0 7.0 7.5 7.5 7.3 7.2 7.1 6.9 6.7 7.1 6.7 6.5 6.3 6.1 6.3 6.4 6.4 6.2 5.7 5.5 5.5 5.2 5.1 5.2 5.4 5.2 4.8 5.1 5.3 4.9
4.8 4.6 4.8 4.9 4.7 5.6 6.2 5.9 6.2 6.3 6.4 6.5 6.6 6.7 6.7 6.5 6.7 6.8 7.1 7.3 7.2 7.0 6.9 7.5 7.0 6.8 6.7 6.4 6.2 6.1 5.9 5.5 5.6 5.3 5.2 5.1 4.8 4.9 5.4 5.1 5.1 4.8 4.8 4.3
4.2 4.5 4.6 4.8 5.4 5.5 5.0 5.2 5.3 5.2 5.3 5.8 6.4 6.6 6.5 6.0 6.2 6.5 6.6 7.0 7.1 6.8 7.1 7.4 7.2 7.1 6.9 6.7 6.3 5.6 5.4 5.5 5.2 4.9 5.0 4.9 4.5 4.5 4.6 4.9 4.5 3.9 3.9 4.6
4.3 4.1 4.1 3.9 4.8 4.7 4.7 4.7 4.7 5.2 5.5 5.7 5.6 6.2 6.7 6.8 6.1 6.1 6.3 6.7 6.9 7.0 7.4 7.5 7.5 7.5 7.2 6.8 6.1 5.7 5.4 5.0 4.8 4.6 4.6 4.6 4.4 4.5 3.7 3.6 3.9 4.5 4.6 4.4
4.4 4.1 3.9 4.0 4.5 4.6 4.9 5.4 5.4 6.0 6.3 6.3 5.9 5.8 6.3 6.4 6.7 6.1 6.1 6.6 7.0 7.4 7.6 7.5 7.6 7.6 7.3 7.0 6.1 5.5 5.0 4.9 4.7 4.5 4.6 4.7 3.9 3.2 3.3 3.6 3.9 4.1 4.0 3.9
4.1 3.9 3.5 3.7 4.6 4.6 5.3 5.6 5.8 5.6 5.4 5.8 6.0 5.6 5.9 6.4 6.7 6.4 6.3 6.7 6.9 7.1 7.3 7.4 7.4 7.4 7.3 6.6 6.0 5.4 5.2 5.1 4.6 4.6 4.4 3.4 3.1 3.6 3.7 3.9 4.0 4.0 4.0 4.0
Wind_Speed
1 8 9 13 11 10 11 15 18 18 15 16 19 24 23 22 18 14 18 15 15 15 15 15 16 17 18 16 13 13 14 14 12 14 14 14 16 15 14 15 18 18 15 17
7 10 8 4 5 9 11 16 18 16 15 15 21 25 22 21 16 16 14 14 15 16 17 17 17 18 18 17 17 18 16 14 14 14 14 13 13 14 14 14 16 19 18 18
10 10 7 11 12 13 14 12 15 19 19 19 20 20 19 12 8 14 13 13 13 15 17 19 21 20 19 19 19 20 20 19 14 16 13 13 12 12 13 15 15 17 20 19
4 6 4 8 11 12 15 13 14 16 17 16 15 21 19 12 13 12 12 14 16 18 19 18 21 22 23 21 20 20 21 21 16 15 14 18 14 15 13 13 12 13 17 17
5 5 8 10 6 8 13 11 14 17 18 19 17 10 13 4 5 8 11 13 15 16 18 21 22 22 21 21 19 19 22 22 19 16 17 13 16 13 12 11 14 12 10 17
4 2 4 6 9 5 9 11 16 17 13 11 2 5 9 3 2 5 8 12 14 16 18 19 21 21 22 23 22 21 22 23 22 17 16 16 17 14 13 12 6 7 10 12
9 2 2 9 7 2 12 12 10 6 6 10 3 13 13 6 4 5 9 12 15 16 18 19 22 22 24 25 25 21 20 21 21 20 14 12 15 15 16 14 8 10 6 1
5 4 5 7 5 6 10 7 5 7 9 17 18 10 5 9 5 4 7 10 14 17 17 19 20 21 23 24 24 22 19 19 17 17 15 13 9 5 3 11 9 8 8 7
5 4 0 2 5 5 3 7 8 12 18 16 13 18 8 10 6 3 8 12 16 18 19 19 20 20 22 23 24 20 17 16 15 13 11 12 12 13 11 14 11 9 8 7
2 8 4 5 8 10 10 10 7 9 6 11 13 21 18 11 4 4 10 14 17 18 20 20 19 20 19 20 21 19 13 13 14 12 9 9 10 11 12 11 13 10 10 9
6 3 1 3 7 10 12 13 12 10 12 15 17 15 4 3 1 6 11 16 20 21 21 19 19 20 20 20 20 19 13 10 11 10 9 10 12 12 11 13 12 11 12 11
5 5 9 16 15 6 10 13 11 9 14 10 12 20 10 7 9 14 17 17 20 18 18 17 18 19 19 20 19 20 12 8 7 8 9 9 9 10 13 13 14 12 13 15
6 2 9 7 6 6 5 2 4 9 13 21 16 18 3 18 25 26 30 28 21 17 16 17 17 18 18 19 19 18 15 7 7 7 6 10 9 11 12 12 17 14 13 13
2 8 12 13 19 18 25 23 21 20 15 22 26 31 34 27 29 29 27 24 17 14 13 15 16 18 18 20 19 19 17 4 4 6 8 9 13 12 12 14 13 15 16 12
4 11 16 19 20 22 25 25 21 23 27 26 31 34 31 32 28 26 21 18 11 11 12 14 16 17 19 21 20 20 14 2 5 7 9 11 10 12 12 12 14 14 15 13
4 10 15 19 20 21 25 24 24 27 28 28 29 32 26 23 19 19 17 9 10 11 13 15 17 18 20 21 20 18 6 5 7 9 10 10 12 11 12 10 13 14 14 16
9 6 8 9 10 17 16 12 11 19 20 20 20 21 20 23 20 18 12 11 10 13 15 16 16 17 17 18 19 13 10 8 8 10 10 11 13 13 13 13 13 14 16 15
10 11 8 11 15 10 2 11 19 20 22 22 20 19 17 19 23 19 9 8 11 15 15 16 13 15 16 16 14 9 9 10 11 12 12 13 13 13 12 14 14 13 12 12
15 12 7 5 9 21 17 11 13 17 19 16 19 18 20 20 13 11 4 11 14 16 13 13 12 14 14 13 9 6 9 12 13 13 13 12 12 13 12 13 13 11 11 11
11 13 11 9 12 12 9 14 14 14 20 20 12 11 9 10 9 7 11 19 19 18 14 13 13 12 12 10 5 7 8 11 13 11 11 10 10 11 12 12 10 9 10 11
9 9 14 13 14 14 17 15 14 14 15 13 14 14 12 13 13 17 18 19 17 15 15 10 10 10 11 7 6 8 9 10 9 10 11 11 11 12 13 12 10 10 11 10
6 5 8 11 14 15 4 10 16 18 23 28 23 19 20 21 21 20 21 18 16 14 11 8 8 8 8 6 7 10 9 8 10 11 13 13 12 10 10 14 10 10 10 11
5 9 10 9 11 24 27 27 27 26 25 25 26 28 25 25 22 17 15 14 10 8 7 6 8 7 9 9 10 10 9 10 11 14 14 14 14 12 12 12 10 9 11 9
8 12 11 18 14 26 27 29 28 26 27 25 24 25 23 23 21 16 12 11 7 5 6 6 8 9 10 10 11 11 11 11 12 13 13 12 13 12 13 11 10 11 10 9
12 13 15 20 25 32 26 27 27 28 26 25 23 23 23 21 19 18 12 11 3 4 6 9 10 11 11 11 11 11 10 11 12 12 12 11 11 13 13 13 10 11 13 12
4 9 8 15 25 17 28 32 36 31 29 25 22 20 17 20 16 14 5 2 5 7 10 11 12 12 12 12 12 11 10 12 12 11 9 9 8 8 7 9 10 19 18 18
Wind_Direction
169 261 270 324 329 316 295 291 295 299 320 308 302 300 305 307 300 298 315 324 1 344 352 360 357 351 347 346 336 335 311 281 243 234 233 227 225 222 223 224 223 219 213 207
236 265 352 356 316 301 298 297 293 308 304 311 302 296 294 292 302 313 19 10 0 353 353 357 1 358 351 344 341 333 324 307 279 243 239 235 232 233 229 225 222 218 213 210
281 298 325 299 298 299 294 291 306 308 308 288 291 298 294 318 339 52 41 18 10 6 1 0 1 1 356 353 344 335 329 322 300 278 248 239 238 241 232 225 221 217 213 209
326 8 328 308 298 300 299 329 309 300 306 301 321 296 298 314 62 50 29 16 11 5 0 0 359 357 357 354 345 339 331 323 312 296 258 237 233 235 239 241 230 224 211 207
79 334 335 304 2 328 302 317 298 295 289 293 287 264 293 25 22 21 18 18 12 10 5 2 358 354 355 350 348 343 337 327 322 308 283 236 233 239 245 243 239 217 191 201
26 327 5 335 306 310 319 293 294 280 270 271 343 288 301 346 22 47 28 27 15 9 5 360 358 356 355 355 349 347 342 332 332 319 292 254 237 232 245 241 223 200 191 212
319 24 122 5 306 250 336 318 307 276 233 273 250 296 271 135 120 45 20 14 10 8 4 356 356 357 357 353 348 348 342 332 338 326 314 272 245 235 245 246 216 202 197 159
322 208 13 357 9 323 306 309 292 296 301 301 302 266 320 100 122 39 12 8 2 2 0 356 353 351 351 351 348 344 344 337 340 346 2 11 337 276 352 40 71 85 94 95
323 240 263 321 321 292 10 263 353 285 274 270 265 268 166 175 171 5 3 0 359 354 353 351 348 351 345 345 350 347 341 340 346 346 4 30 48 60 64 63 68 77 84 81
52 289 243 301 289 248 247 326 271 214 276 275 275 293 293 173 213 330 356 353 346 344 343 345 346 348 343 344 343 345 350 348 341 354 16 33 56 69 71 74 66 63 65 58
332 250 171 262 241 298 284 258 248 272 269 271 282 274 87 73 68 353 342 332 340 338 339 343 342 342 341 341 340 340 352 352 353 357 26 43 59 53 66 71 68 71 71 67
13 304 283 282 290 291 276 265 256 254 277 276 280 269 320 237 263 309 306 316 331 329 330 337 337 340 340 340 341 337 345 345 12 7 21 39 67 65 66 79 76 67 75 81
4 221 306 283 155 193 256 240 300 284 280 267 268 261 286 307 293 302 305 314 320 325 331 330 339 343 342 341 337 336 333 338 0 32 47 43 55 78 83 69 75 69 66 63
288 255 255 275 296 307 292 283 291 296 281 281 267 282 283 286 290 296 304 306 315 315 330 332 339 342 343 342 337 335 327 328 35 67 65 72 74 60 60 82 82 86 70 61
255 268 275 282 291 291 286 291 294 281 273 267 277 278 284 290 294 300 302 298 303 312 329 341 343 343 344 343 342 342 320 84 85 71 76 73 71 86 69 70 78 76 78 62
283 278 301 290 284 278 285 290 286 275 275 274 275 279 284 296 301 303 291 286 298 328 337 344 346 347 347 345 347 341 7 52 86 91 88 85 88 90 85 61 63 63 75 72
276 278 308 283 293 296 287 280 292 290 283 289 291 299 307 302 302 306 313 304 333 333 337 343 344 346 348 348 351 1 31 50 71 79 77 76 79 75 77 74 69 64 62 70
249 253 263 285 295 268 232 300 291 281 281 278 279 287 305 299 303 298 286 341 337 332 333 336 342 341 347 355 358 22 50 62 67 71 71 69 73 76 72 78 71 69 71 69
224 247 257 266 274 285 288 274 287 291 286 297 291 297 294 305 291 258 108 349 334 327 327 328 337 340 350 353 9 56 69 78 77 73 72 73 75 78 74 71 75 78 80 70
218 224 240 254 286 282 305 319 301 290 278 278 288 298 300 312 289 288 345 332 322 319 324 329 340 349 0 355 35 70 77 85 90 91 88 85 80 79 74 71 65 66 70 79
219 225 235 252 261 270 279 286 298 265 284 318 306 290 281 276 283 298 306 315 316 314 317 350 348 8 1 22 73 80 81 75 79 85 82 78 73 72 72 72 65 68 70 70
255 263 260 266 274 276 269 291 278 294 311 309 304 296 288 287 282 288 296 304 315 314 321 358 10 17 20 45 86 86 72 68 74 75 73 70 68 69 69 73 67 69 70 66
256 232 292 280 276 300 304 291 285 282 273 266 270 281 291 287 284 289 294 297 305 317 345 11 28 53 52 65 86 81 76 76 76 74 71 67 65 65 66 69 68 64 56 54
287 278 266 289 275 291 303 308 303 302 295 291 272 259 258 274 281 281 283 293 304 6 19 50 81 81 77 73 76 81 84 82 79 77 75 75 73 75 72 66 56 52 48 46
286 301 284 290 295 316 304 312 309 301 293 287 289 296 273 248 268 274 279 288 32 84 79 92 100 96 85 82 79 79 82 86 84 80 79 79 75 70 67 57 59 65 55 42
255 332 315 306 315 311 302 305 308 305 297 287 279 275 284 272 248 265 267 280 107 101 104 103 97 93 87 83 77 72 73 83 87 85 77 71 75 73 80 85 79 66 65 56